SCOUT B DEB, 2498

Orbit data source: Space-Track

SCOUT B DEB, 2498 is space debris in LEO originally from a launch on Fri, 10 Jun 1966 UTC launched from the Wallops Island (WLPIS). Debris objects in space refer to the collection of defunct objects orbiting the Earth. Examples of debris include non-operational satellites, rocket bodies, and fragments generated from explosions, collisions, or faulty payload assembly.

Loading next visibility...
Identifier
2498, 1966-052C
Orbit
LEO
Country
Flag of USUS
Related business
Manufacturer
Unknown
Mission
Spacecraft
Bus & Motor
Unknown
Mass
Unknown
Launch date (UTC)
1966-06-10 (60 years ago)
Launch vehicle
Unknown
Launch site
Wallops Island (WLPIS)
Object type
Payload
Rocket body
Debris
Shape & HBR
Unknown shape, 0.1 m
Radar Cross Section
Medium (>0.1 m² and <1 m²)

Expand to show TLE details & history
Last TLE update: 2 days ago

TLE from 2 days ago
0 SCOUT B DEB
1 02498U 66052C   26245.46218041  .00000289  00000-0  28916-3 0  9995
2 02498  40.6339 300.4773 2066655 352.9524   4.5816 10.56474256485038
Epoch: 2026-09-02T11:05Z
TLE epoch observation values (Epoch: 2026-09-02T11:05:32.387Z)
Latitude
-0.00005°
Longitude
152.47794°
Altitude
591.032 km
Speed
8.306 km/s
True Right ascension
20h 01m 54s
True Declination
0° 00' 00"
Sunlit
Object was in full shadow at epoch
Visualization orbit readout
Latitude
Unknown
Longitude
Unknown
Altitude
Unknown
Speed
Unknown
Apparent Right ascension
Unknown
Apparent Declination
Unknown
Sunlit
N/A
Visualization observer readout
Local Sidereal Time
01:24:14
Azimuth
Unknown
Elevation
Unknown
Doppler factor
Unknown
Orbital elements
Apogee altitude
4,210.651 km
Perigee altitude
583.57 km
Semi-major axis
8,775.247 km
Eccentricity
0.20667
Inclination
40.6339°
RAAN
300.4773°
Arg. of periapsis
352.9524°
True anomaly
7.11613°
Mean anomaly
4.5816°
Eccentric anomaly
5.77257°
Mean motion
2.64031 °/min
Orbital period
136.35 mins
BSTAR
0.00028916
Loading maneuver chart data...
Computing Atmospheric mass density...
Loading historical data...
Loading historical data...
Loading historical data...
Loading historical data...
Loading historical data...
Loading historical data...
Loading historical data...
Other satellites on launch #52 in the year 1966 (1966-06-10 UTC)

Documentation

Showing up to 5 results
|